Location: Brompton
(51.4000°N, 0.5333°E)
Time: 11:08:37
(UTC+00:00)

Cosmos 1898 Rocket - Pass Details

Date: 01 October 2021
Orbit: 752 x 784 km, 74.0° (Epoch: 17 October)

Event Time Altitude Azimuth Distance (km) Brightness Sun altitude
Rises 19:19:17 0° 191° (S) 3,206 6.7 -16.9°
Reaches altitude 10° 19:21:39 10° 187° (S) 2,289 5.9 -17.3°
Maximum altitude 19:26:45 60° 109° (ESE) 880 3.5 -18.0°
Drops below altitude 10° 19:31:56 10° 31° (NNE) 2,326 5.9 -18.8°
Sets 19:34:21 0° 28° (NNE) 3,263 6.7 -19.2°
